Погода в Варзеа-Гранди

Бразилия     6°32′12″S   42°14′06″W
темп.,
°C
ветер,
м/с
пор.,
м/с
влажн.,
%
обл.,
%
осадки,
мм/ч
давл.,
гПа
погр.,
м
27 февраля, сб
сб2723:00+23всв1291100 1.6 101124
02:00+22св4997100 6.6 1010320
05:00+21ссв3798100 5.2 1011242
08:00+22св1396100 5.3 1012255
11:00+28с127875 2.6 1011840
14:00+29зсз116788 4.1 10081107
17:00+24з1292100 2.9 100839
20:00+22сз1198100 12.6 101039
28 февраля, вс
вс2823:00+22з0197100 4.3 101123
02:00+21ю1199100 18.2 100961
05:00+21з1198100 7.3 101036
08:00+24в0188100 7.4 1012352
11:00+23юв1294100 2.9 1011305
14:00+24ююв1388100 3.1 1008306
17:00+23зюз119298 0.0 100723
20:00+22ю129799 0.5 100933
1 марта, пн
пн123:00+22с0096100 0.4 100823
02:00+21всв119698 0.4 100723
05:00+20юв129746 0.1 100826
08:00+25всв358124 0.2 1010650
11:00+28всв247216 1.6 10081069
14:00+28в238030 4.9 1005787
17:00+24вюв129277 3.1 100634
20:00+22вюв249288 11.3 1009103
2 марта, вт
вт223:00+22всв229173 0.3 100933
02:00+21вюв129676 0.3 100857
05:00+21в1195100 0.1 101023
08:00+25всв378193 0.4 1011630
11:00+28всв367121 3.7 10101159
14:00+27в358157 9.1 1007924
17:00+24в2390100 2.5 100855
20:00+22вюв2292100 3.1 101147
3 марта, ср
ср323:00+22всв129099 0.0 101223
02:00+21всв289598 0.0 1011255
05:00+20всв229590 0.0 101259
08:00+24всв278083 0.0 1014630
11:00+29всв356178 0.0 10131387
14:00+30всв365840 0.0 10091570
17:00+25всв117859 0.0 101024
20:00+23ююв228477 0.1 101225